This is the latest recevied weather packets stored in our database for station/object KA9CBS. If no packets are shown the sender has not sent any weather packets the latest 10 day(s).
| Time | Temp. | Humidity | Pressure | Rain* | Wind** | Luminosity | Snow |
|---|---|---|---|---|---|---|---|
| 1778089198 | 13.89° C | 75% | 1017.5 hPa | 0 mm | - | 492 W/m² | - |
| 1778088896 | 12.78° C | 74% | 1017.8 hPa | 0 mm | - | 384 W/m² | - |
| 1778088592 | 12.78° C | 75% | 1017.4 hPa | 0 mm | - | 386 W/m² | - |
| 1778088290 | 12.78° C | 75% | 1017.4 hPa | 0 mm | - | 347 W/m² | - |
| 1778087986 | 12.78° C | 77% | 1017.7 hPa | 0 mm | - | 369 W/m² | - |
| 1778087684 | 12.78° C | 73% | 1017.8 hPa | 0 mm | - | 321 W/m² | - |
| 1778087382 | 12.78° C | 76% | 1017.9 hPa | 0 mm | - | 331 W/m² | - |
| 1778087078 | 12.78° C | 75% | 1017.5 hPa | 0 mm | - | 326 W/m² | - |
| 1778086777 | 12.78° C | 77% | 1017.8 hPa | 0 mm | - | 392 W/m² | - |
| 1778086475 | 12.78° C | 79% | 1017.6 hPa | 0 mm | - | 351 W/m² | - |
| 1778086171 | 12.22° C | 79% | 1017.8 hPa | 0 mm | - | 338 W/m² | - |
| 1778085868 | 12.78° C | 78% | 1017.6 hPa | 0 mm | - | 262 W/m² | - |
| 1778085566 | 12.22° C | 80% | 1017.6 hPa | 0 mm | - | 308 W/m² | - |
| 1778085265 | 12.78° C | 81% | 1017.8 hPa | 0 mm | - | 304 W/m² | - |
| 1778084955 | 12.22° C | 83% | 1017.6 hPa | 0 mm | - | 333 W/m² | - |
| 1778084653 | 12.22° C | 81% | 1017.5 hPa | 0 mm | - | 342 W/m² | - |
| 1778084350 | 12.22° C | 77% | 1017.6 hPa | 0 mm | - | 359 W/m² | - |
| 1778084049 | 11.67° C | 82% | 1017.6 hPa | 0 mm | - | 354 W/m² | - |
| 1778083745 | 12.22° C | 82% | 1017.4 hPa | 0 mm | - | 363 W/m² | - |
| 1778083442 | 11.67° C | 83% | 1017.1 hPa | 0 mm | - | 348 W/m² | - |
| 1778083140 | 11.67° C | 81% | 1016.9 hPa | 0 mm | - | 394 W/m² | - |
| 1778082837 | 11.67° C | 81% | 1017 hPa | 0 mm | - | 357 W/m² | - |
| 1778081720 | 11.11° C | 88% | 1016.9 hPa | 0 mm | - | 290 W/m² | - |
| 1778081417 | 11.11° C | 87% | 1017 hPa | 0 mm | - | 317 W/m² | - |
| 1778081114 | 10.56° C | 87% | 1017 hPa | 0 mm | - | 297 W/m² | - |
* Rain latest hour (hover to see other rain measurements)
** Current wind speed in m/s (hover to see current wind gust speed)